EW4792 Weather Reports


Display with metric or nautical units.
time (UTC)temp
F
wind
direction
speed
MPH
gust
MPH
rain 1hr
in
rain 24hr
in
rain mn
in
humidity
%
barometer
mb
20260509200638 83 145 1.0 2.0 0.00 0.01 0.01 75 1010.7
20260509200148 82 145 0.0 4.0 0.00 0.01 0.01 75 1010.8
20260509195703 82 145 2.0 5.0 0.00 0.01 0.01 75 1010.9
20260509195155 82 147 4.0 6.0 0.00 0.01 0.01 76 1010.9
20260509194709 82 147 5.0 6.0 0.00 0.01 0.01 78 1010.9
20260509194158 83 159 5.0 6.0 0.00 0.01 0.01 79 1010.8
20260509193706 83 173 5.0 6.0 0.00 0.01 0.01 77 1010.9
20260509193140 83 180 5.0 6.0 0.00 0.01 0.01 76 1011.0
20260509192211 84 269 1.0 6.0 0.00 0.01 0.01 74 1011.4
20260509191704 84 269 2.0 6.0 0.00 0.01 0.01 74 1011.4
20260509191200 83 230 3.0 6.0 0.00 0.01 0.01 74 1011.4
20260509190654 83 226 5.0 6.0 0.00 0.01 0.01 75 1011.6
20260509190151 83 252 1.0 8.0 0.00 0.01 0.01 77 1011.6
20260509185624 83 20 5.0 9.0 0.00 0.01 0.01 76 1011.7
20260509185146 82 288 1.0 8.0 0.00 0.01 0.01 77 1011.7
20260509184641 82 334 2.0 6.0 0.00 0.01 0.01 79 1011.8
20260509184139 82 288 1.0 6.0 0.00 0.01 0.01 80 1011.9
20260509183636 81 346 2.0 6.0 0.00 0.01 0.01 80 1011.9
20260509183212 81 316 1.0 6.0 0.00 0.01 0.01 80 1011.8
20260509182707 81 294 2.0 6.0 0.00 0.01 0.01 81 1011.7
20260509182145 81 336 3.0 6.0 0.00 0.01 0.01 81 1011.9
20260509181126 80 286 3.0 7.0 0.00 0.01 0.01 82 1012.1
20260509180624 80 24 4.0 8.0 0.00 0.01 0.01 83 1012.2
20260509180132 80 334 4.0 9.0 0.00 0.01 0.01 83 1012.3
20260509175629 80 342 4.0 9.0 0.00 0.01 0.01 84 1012.3
20260509175124 79 334 3.0 8.0 0.00 0.01 0.01 85 1012.4
20260509174618 79 288 0.0 6.0 0.00 0.01 0.01 85 1012.4
20260509174131 79 287 2.0 7.0 0.00 0.01 0.01 86 1012.6
20260509173645 79 304 3.0 7.0 0.00 0.01 0.01 86 1012.5
20260509172622 78 334 5.0 6.0 0.00 0.01 0.01 87 1012.6
20260509172146 78 325 2.0 8.0 0.00 0.01 0.01 87 1012.7
20260509171627 78 10 5.0 8.0 0.00 0.01 0.01 88 1012.8
20260509171126 78 307 6.0 8.0 0.00 0.01 0.01 88 1012.8
20260509170730 77 297 5.0 8.0 0.00 0.01 0.01 89 1012.7
20260509170118 77 292 6.0 8.0 0.00 0.01 0.01 89 1012.7
20260509165658 77 324 3.0 7.0 0.00 0.01 0.01 90 1012.7
20260509165148 76 324 3.0 7.0 0.00 0.01 0.01 90 1012.5
20260509164658 76 299 1.0 5.0 0.00 0.01 0.01 90 1012.5
20260509164154 76 299 2.0 7.0 0.00 0.01 0.01 90 1012.7
20260509163651 76 299 5.0 9.0 0.00 0.01 0.01 90 1012.7
20260509163150 76 307 5.0 9.0 0.00 0.01 0.01 90 1012.8
20260509162644 75 297 6.0 9.0 0.00 0.01 0.01 91 1012.9
20260509162141 75 301 6.0 8.0 0.00 0.01 0.01 91 1012.9
20260509161655 75 305 5.0 8.0 0.00 0.01 0.01 91 1013.0
20260509161150 75 313 3.0 6.0 0.00 0.01 0.01 91 1013.0
20260509160644 74 332 3.0 6.0 0.00 0.01 0.01 92 1012.9
20260509160138 74 320 3.0 8.0 0.00 0.01 0.01 92 1013.0
20260509155655 74 317 3.0 9.0 0.00 0.01 0.01 92 1013.0
20260509155206 74 318 4.0 9.0 0.00 0.01 0.01 92 1013.1
20260509154638 74 282 0.0 2.0 0.00 0.01 0.01 92 1012.9
20260509154150 74 282 1.0 2.0 0.00 0.01 0.01 92 1012.9
20260509153644 74 193 0.0 1.0 0.00 0.01 0.01 92 1012.9
20260509153140 73 193 0.0 1.0 0.00 0.01 0.01 92 1012.9
20260509152635 73 193 0.0 6.0 0.00 0.01 0.01 92 1013.0
20260509152126 73 193 1.0 8.0 0.00 0.01 0.01 92 1012.9
20260509151710 73 188 6.0 9.0 0.00 0.01 0.01 92 1012.7
20260509151126 73 178 8.0 9.0 0.00 0.01 0.01 92 1012.5
20260509150638 73 180 5.0 7.0 0.00 0.01 0.01 92 1012.8
20260509145711 73 198 5.0 8.0 0.01 0.01 0.01 92 1013.1
20260509145149 73 195 7.0 8.0 0.01 0.01 0.01 92 1013.1
20260509144212 73 193 3.0 6.0 0.01 0.01 0.01 92 1013.2
20260509143708 73 195 4.0 7.0 0.01 0.01 0.01 92 1013.4
20260509143204 73 201 6.0 8.0 0.01 0.01 0.01 92 1013.3
20260509142658 73 211 6.0 8.0 0.01 0.01 0.01 92 1013.1
20260509142151 73 105 0.0 2.0 0.01 0.01 0.01 92 1013.0
20260509141731 73 105 1.0 2.0 0.01 0.01 0.01 92 1012.8
20260509141201 73 105 0.0 1.0 0.01 0.01 0.01 92 1012.8
20260509140651 73 105 0.0 0.0 0.01 0.01 0.01 92 1012.5
20260509140148 73 105 0.0 0.0 0.01 0.01 0.01 92 1012.5
20260509135634 73 111 0.0 2.0 0.00 0.00 0.00 92 1012.5
20260509135130 73 111 0.0 6.0 0.00 0.00 0.00 92 1012.3
20260509134638 73 111 4.0 6.0 0.00 0.00 0.00 92 1012.4
20260509134124 73 132 4.0 5.0 0.00 0.00 0.00 92 1012.3
20260509133616 73 153 1.0 4.0 0.00 0.00 0.00 92 1012.4
20260509133213 73 153 1.0 4.0 0.00 0.00 0.00 92 1012.6
20260509132648 73 153 2.0 4.0 0.00 0.00 0.00 92 1012.6
20260509132144 73 153 1.0 2.0 0.00 0.00 0.00 92 1012.6
20260509131207 73 153 0.0 2.0 0.00 0.00 0.00 92 1012.8
20260509130703 73 153 0.0 2.0 0.00 0.00 0.00 92 1012.7
20260509130138 73 153 1.0 4.0 0.00 0.00 0.00 92 1012.5
20260509125613 73 153 2.0 5.0 0.00 0.00 0.00 92 1012.3
20260509125156 73 153 3.0 7.0 0.00 0.00 0.00 92 1012.1
20260509124657 73 150 6.0 7.0 0.00 0.00 0.00 92 1012.1
20260509123620 73 139 4.0 6.0 0.00 0.00 0.00 92 1012.0
20260509123145 73 95 0.0 0.0 0.00 0.00 0.00 92 1012.3
20260509122629 73 95 0.0 0.0 0.00 0.00 0.00 92 1012.2
20260509122210 73 95 0.0 0.0 0.00 0.00 0.00 92 1012.3
20260509121705 73 95 0.0 2.0 0.00 0.00 0.00 92 1012.5
20260509121142 73 95 1.0 5.0 0.00 0.00 0.00 92 1012.8
20260509120207 73 95 2.0 4.0 0.00 0.00 0.00 92 1012.7
20260509115700 73 93 1.0 4.0 0.00 0.00 0.00 92 1012.6
20260509114709 73 41 0.0 6.0 0.00 0.00 0.00 92 1012.4
20260509114203 73 39 3.0 6.0 0.00 0.00 0.00 92 1012.4
20260509113149 73 10 3.0 9.0 0.00 0.00 0.00 92 1012.4
20260509112632 73 15 5.0 11.0 0.00 0.00 0.00 92 1012.4
20260509112116 73 3 6.0 11.0 0.00 0.00 0.00 92 1012.4
20260509111629 73 10 4.0 10.0 0.00 0.00 0.00 92 1012.5
20260509111121 73 350 4.0 8.0 0.00 0.00 0.00 92 1012.5
20260509110616 73 357 4.0 8.0 0.00 0.00 0.00 92 1012.4
20260509110117 73 4 4.0 6.0 0.00 0.00 0.00 92 1012.3
20260509105717 73 3 1.0 3.0 0.00 0.00 0.00 92 1012.0
20260509105150 73 93 1.0 4.0 0.00 0.00 0.00 91 1012.0
20260509104213 73 93 0.0 2.0 0.00 0.00 0.00 92 1012.1
20260509103711 73 93 0.0 2.0 0.00 0.00 0.00 91 1012.2
20260509103145 73 93 1.0 2.0 0.00 0.00 0.00 91 1012.4
20260509102204 73 93 0.0 4.0 0.00 0.00 0.00 91 1012.3
20260509101658 73 93 1.0 6.0 0.00 0.00 0.00 91 1012.3
20260509101146 73 93 3.0 6.0 0.00 0.00 0.00 91 1012.2
20260509100207 73 84 2.0 4.0 0.00 0.00 0.00 91 1012.0
20260509095700 73 84 0.0 4.0 0.00 0.00 0.00 91 1012.0
20260509095200 73 84 2.0 4.0 0.00 0.00 0.00 91 1011.9
20260509094650 73 84 1.0 4.0 0.00 0.00 0.00 91 1011.9
20260509094201 73 84 1.0 5.0 0.00 0.00 0.00 91 1011.8
20260509093658 73 75 2.0 5.0 0.00 0.00 0.00 91 1011.8
20260509093152 73 65 2.0 4.0 0.00 0.00 0.00 91 1011.8
20260509092646 73 118 1.0 3.0 0.00 0.00 0.00 91 1011.9
20260509092142 73 142 1.0 2.0 0.00 0.00 0.00 91 1011.8
20260509091703 73 149 0.0 0.0 0.00 0.00 0.00 91 1011.9
20260509091158 73 149 0.0 0.0 0.00 0.00 0.00 91 1011.7
20260509090710 73 149 0.0 0.0 0.00 0.00 0.00 91 1011.6
20260509090120 73 149 0.0 0.0 0.00 0.00 0.00 91 1011.4
20260509085700 73 149 0.0 0.0 0.00 0.00 0.00 91 1011.2
20260509085210 73 149 0.0 1.0 0.00 0.00 0.00 91 1011.2
20260509084648 73 149 0.0 2.0 0.00 0.00 0.00 91 1011.5
20260509083626 73 149 0.0 1.0 0.00 0.00 0.00 91 1011.3
20260509083125 73 149 0.0 2.0 0.00 0.00 0.00 91 1011.5
20260509082638 73 149 1.0 6.0 0.00 0.00 0.00 91 1011.6
20260509082156 73 149 1.0 6.0 0.00 0.00 0.00 91 1011.8
20260509081635 73 148 4.0 6.0 0.00 0.00 0.00 91 1011.7
20260509081126 73 146 5.0 6.0 0.00 0.00 0.00 91 1011.7
20260509080623 73 142 3.0 6.0 0.00 0.00 0.00 91 1011.6
20260509080121 73 141 4.0 6.0 0.00 0.00 0.00 91 1011.3
20260509075725 73 144 5.0 6.0 0.00 0.00 0.00 91 1011.4
20260509075158 73 147 5.0 5.0 0.00 0.00 0.00 91 1011.3
20260509074652 73 151 3.0 5.0 0.00 0.00 0.00 91 1011.6
20260509074146 73 150 3.0 6.0 0.00 0.00 0.00 91 1011.6
20260509073210 73 142 5.0 6.0 0.00 0.00 0.00 91 1011.4
20260509072707 73 141 5.0 7.0 0.00 0.00 0.00 91 1011.3
20260509072205 73 154 6.0 10.0 0.00 0.00 0.00 91 1011.5
20260509071704 73 165 8.0 10.0 0.00 0.00 0.00 91 1011.4
20260509071201 73 161 6.0 9.0 0.00 0.00 0.00 91 1011.4
20260509070651 73 159 8.0 10.0 0.00 0.00 0.00 91 1011.7
20260509070127 74 142 8.0 10.0 0.00 0.00 0.00 91 1011.8
20260509065621 74 163 7.0 11.0 0.00 0.00 0.00 91 1011.5
20260509065154 74 167 9.0 11.0 0.00 0.00 0.00 91 1011.6
20260509064625 74 158 8.0 11.0 0.00 0.00 0.00 91 1011.6
20260509064139 74 170 6.0 11.0 0.00 0.00 0.00 90 1011.6
20260509063631 74 178 8.0 11.0 0.00 0.00 0.00 90 1011.7
20260509063126 74 189 8.0 9.0 0.00 0.00 0.00 90 1011.6
20260509062619 74 177 6.0 9.0 0.00 0.00 0.00 90 1011.6
20260509062133 74 184 5.0 10.0 0.00 0.00 0.00 90 1011.6
20260509061626 74 168 7.0 10.0 0.00 0.00 0.00 90 1011.6
20260509061120 74 166 7.0 11.0 0.00 0.00 0.00 90 1011.6
20260509060633 74 170 9.0 11.0 0.00 0.00 0.00 90 1011.6
20260509060125 74 168 8.0 11.0 0.00 0.00 0.00 90 1011.6
20260509055619 74 155 9.0 11.0 0.00 0.00 0.00 90 1011.8
20260509055132 74 170 9.0 11.0 0.00 0.00 0.00 90 1011.7
20260509054624 74 172 8.0 12.0 0.00 0.00 0.00 90 1011.8
20260509054118 74 182 9.0 14.0 0.00 0.00 0.00 90 1012.1
20260509053631 74 182 10.0 12.0 0.00 0.00 0.00 90 1012.2
20260509053124 74 172 9.0 11.0 0.00 0.00 0.00 90 1012.3
20260509052618 74 163 7.0 12.0 0.00 0.00 0.00 90 1012.2
20260509052116 74 161 9.0 12.0 0.00 0.00 0.00 90 1012.0
20260509051646 74 159 8.0 11.0 0.00 0.00 0.00 90 1012.0
20260509051121 74 155 9.0 11.0 0.00 0.00 0.00 90 1012.0
20260509050614 74 155 9.0 11.0 0.00 0.00 0.00 90 1012.2
20260509050148 74 155 10.0 11.0 0.00 0.00 0.00 90 1012.2
20260509045643 73 138 8.0 10.0 0.00 0.00 0.00 90 1012.2
20260509045153 73 128 7.0 9.0 0.00 0.00 0.00 89 1012.0
20260509044648 73 112 5.0 7.0 0.00 0.00 0.00 89 1011.9
20260509044157 73 94 5.0 7.0 0.00 0.00 0.00 89 1011.7
20260509043657 73 104 5.0 7.0 0.00 0.00 0.00 89 1011.7
20260509043153 74 111 5.0 9.0 0.00 0.00 0.00 89 1011.8
20260509042701 74 129 8.0 10.0 0.00 0.00 0.00 89 1011.7
20260509042154 74 142 8.0 10.0 0.00 0.00 0.00 89 1011.8
20260509041651 74 128 4.0 6.0 0.00 0.00 0.00 89 1011.6
20260509041146 74 123 4.0 6.0 0.00 0.00 0.00 89 1011.5
20260509040126 74 113 5.0 7.0 0.00 0.00 0.00 88 1011.5
20260509035643 74 116 5.0 7.0 0.00 0.00 0.00 88 1011.8
20260509035153 74 113 5.0 7.0 0.00 0.00 0.00 88 1011.7
20260509034652 74 113 5.0 7.0 0.00 0.00 0.00 88 1011.7
20260509034147 75 103 6.0 7.0 0.00 0.00 0.00 88 1011.7
20260509033207 75 112 4.0 7.0 0.00 0.00 0.00 88 1011.8
20260509032703 75 99 5.0 8.0 0.00 0.00 0.00 88 1011.8
20260509032226 75 107 4.0 8.0 0.00 0.00 0.00 88 1011.6
20260509031647 75 139 5.0 8.0 0.00 0.00 0.00 88 1011.6
20260509031124 75 155 6.0 8.0 0.00 0.00 0.00 88 1011.6
20260509030625 75 138 6.0 8.0 0.00 0.00 0.00 88 1011.5
20260509030122 75 130 6.0 8.0 0.00 0.00 0.00 88 1011.5
20260509025614 75 132 5.0 7.0 0.00 0.00 0.00 88 1011.5
20260509025126 75 132 4.0 5.0 0.00 0.00 0.00 88 1011.6
20260509024620 75 132 3.0 5.0 0.00 0.00 0.00 87 1011.5
20260509024133 75 132 1.0 4.0 0.00 0.00 0.00 87 1011.6
20260509023733 75 132 1.0 4.0 0.00 0.00 0.00 87 1011.4
20260509023206 75 132 2.0 6.0 0.00 0.00 0.00 87 1011.2
20260509022657 75 132 5.0 6.0 0.00 0.00 0.00 87 1011.1
20260509022147 75 134 5.0 7.0 0.00 0.00 0.00 87 1011.1
20260509021631 75 124 6.0 7.0 0.00 0.00 0.00 87 1010.9
20260509021126 75 139 5.0 7.0 0.00 0.00 0.00 87 1010.6
20260509020631 75 131 5.0 7.0 0.00 0.00 0.00 87 1010.7
20260509020134 75 128 6.0 8.0 0.00 0.00 0.00 87 1010.5
20260509015629 75 145 7.0 8.0 0.00 0.00 0.00 87 1010.6
20260509015205 75 145 7.0 9.0 0.00 0.00 0.00 87 1010.5
20260509014647 75 153 6.0 9.0 0.00 0.00 0.00 87 1010.4
20260509014148 75 132 5.0 7.0 0.00 0.00 0.00 87 1010.3
20260509013642 75 116 5.0 8.0 0.00 0.00 0.00 86 1010.2
20260509013139 75 132 6.0 8.0 0.00 0.00 0.00 86 1010.2
20260509012713 75 135 6.0 7.0 0.00 0.00 0.00 86 1010.4
20260509012114 75 128 6.0 8.0 0.00 0.00 0.00 86 1010.3
20260509011617 76 130 5.0 7.0 0.00 0.00 0.00 86 1010.3
20260509011129 76 124 5.0 7.0 0.00 0.00 0.00 86 1010.4
20260509010651 76 121 6.0 7.0 0.00 0.00 0.00 86 1010.3
20260509010200 76 124 5.0 7.0 0.00 0.00 0.00 86 1010.3
20260509005649 76 122 5.0 7.0 0.00 0.00 0.00 86 1010.2
20260509005146 76 136 5.0 6.0 0.00 0.00 0.00 86 1010.2
20260509004643 76 137 4.0 6.0 0.00 0.00 0.00 86 1010.3
20260509003625 76 149 3.0 5.0 0.00 0.00 0.00 86 1010.3
20260509003230 76 149 4.0 5.0 0.00 0.00 0.00 86 1010.2
20260509002642 76 151 4.0 5.0 0.00 0.00 0.00 86 1010.2
20260509002119 76 151 3.0 6.0 0.00 0.00 0.00 85 1010.2
20260509001705 76 147 4.0 6.0 0.00 0.00 0.00 85 1010.2
20260509001201 76 150 4.0 6.0 0.00 0.00 0.00 85 1010.2
20260509000658 76 132 4.0 6.0 0.00 0.00 0.00 85 1010.2
20260509000152 76 133 5.0 7.0 0.00 0.00 0.00 85 1010.2
20260508235646 76 128 5.0 8.0 0.00 0.00 0.00 85 1010.2
20260508235158 76 125 6.0 8.0 0.00 0.00 0.00 85 1010.2
20260508234657 76 126 4.0 7.0 0.00 0.00 0.00 85 1010.2
20260508234139 76 130 5.0 7.0 0.00 0.00 0.00 85 1010.2
20260508233616 76 132 5.0 8.0 0.00 0.00 0.00 85 1010.2
20260508233114 76 151 6.0 8.0 0.00 0.00 0.00 85 1010.2
20260508232612 75 152 7.0 8.0 0.00 0.00 0.00 85 1010.2
20260508232206 75 148 7.0 8.0 0.00 0.00 0.00 85 1010.0
20260508231701 75 143 7.0 9.0 0.00 0.00 0.00 85 1010.1
20260508231157 75 149 6.0 9.0 0.00 0.00 0.00 85 1010.1
20260508230651 75 155 8.0 9.0 0.00 0.00 0.00 85 1010.2
20260508230147 75 147 8.0 9.0 0.00 0.00 0.00 85 1010.2
20260508225642 75 157 7.0 9.0 0.00 0.00 0.00 85 1010.3
20260508225212 75 174 7.0 9.0 0.00 0.00 0.00 85 1010.3
20260508224711 75 164 7.0 9.0 0.00 0.00 0.00 85 1010.3
20260508224208 75 163 7.0 9.0 0.00 0.00 0.00 85 1010.4
20260508223703 75 155 8.0 9.0 0.00 0.00 0.00 85 1010.3
20260508223157 75 157 7.0 9.0 0.00 0.00 0.00 85 1010.3
20260508222719 75 149 6.0 9.0 0.00 0.00 0.00 85 1010.4
20260508222152 75 148 6.0 7.0 0.00 0.00 0.00 85 1010.4
20260508221708 75 165 4.0 6.0 0.00 0.00 0.00 86 1010.4
20260508221204 75 167 5.0 7.0 0.00 0.00 0.00 86 1010.4
20260508220206 75 160 5.0 9.0 0.00 0.00 0.00 85 1010.6
20260508215659 75 159 6.0 9.0 0.00 0.00 0.00 85 1010.5
20260508215149 75 153 7.0 9.0 0.00 0.00 0.00 85 1010.6
20260508214208 75 166 8.0 9.0 0.00 0.00 0.00 86 1010.7
20260508213704 75 171 8.0 9.0 0.00 0.00 0.00 86 1010.7
20260508213154 75 170 6.0 10.0 0.00 0.00 0.00 86 1010.9
20260508212628 75 159 7.0 8.0 0.00 0.00 0.00 86 1010.8
20260508212126 75 177 6.0 9.0 0.00 0.00 0.00 86 1011.0
20260508211708 75 165 7.0 9.0 0.00 0.00 0.00 86 1011.0
20260508211146 75 162 8.0 8.0 0.00 0.00 0.00 86 1011.2
20260508210151 75 157 6.0 7.0 0.00 0.00 0.00 86 1011.2
20260508205702 75 166 6.0 8.0 0.00 0.00 0.00 86 1011.2
20260508205156 75 180 6.0 8.0 0.00 0.00 0.00 86 1011.3
20260508204653 75 181 6.0 8.0 0.00 0.00 0.00 86 1011.3
20260508204153 75 182 7.0 8.0 0.00 0.00 0.00 86 1011.2
20260508203648 75 172 6.0 8.0 0.00 0.00 0.00 86 1011.2
20260508203142 75 170 6.0 8.0 0.00 0.00 0.00 86 1011.3
20260508202207 74 159 6.0 8.0 0.00 0.00 0.00 86 1011.2
20260508201205 74 172 6.0 8.0 0.00 0.00 0.00 86 1011.5